Regional Weather Roundup
Issued by NWS

Home | Current Version | Previous Version | Text Only | Print | Product List | Glossary Off
Versions: 1 2 3 4 5 6 7 8 9 10 11 12 13 14 15 16 17 18 19 20 21 22 23 24 25 26 27 28 29 30 31 32 33 34 35 36 37 38 39 40 41 42 43 44 45 46 47 48 49 50

000
ASUS43 KDMX 221406
RWRIA

WEATHER ROUNDUP FOR IOWA
NATIONAL WEATHER SERVICE DES MOINES IA
900 AM CDT MON MAY 22 2017

NOTE: "FAIR" INDICATES FEW OR NO CLOUDS BELOW 12,000 FEET WITH NO
SIGNIFICANT WEATHER AND/OR OBSTRUCTIONS TO VISIBILITY.

* - THESE STATIONS ARE NOT NWS STATIONS...THUS NOT UNDER NWS
QUALITY CONTROL.  THEY ALSO DO NOT REPORT WEATHER SUCH
AS PRECIPITATION OR FOG.

IAZ001>003-012>014-020>022-031>034-043>046-221500-
   NORTHWEST IOWA

CITY           SKY/WX    TMP DP  RH WIND       PRES   REMARKS
CARROLL *      SUNNY     61  52  72 W21       29.90F
CHEROKEE *     SUNNY     58  51  77 W8        29.90F
DENISON *      SUNNY     59  50  72 W5        29.94S
LE MARS *      SUNNY     59  50  72 W12       29.91F
ORANGE CITY *  SUNNY     55  52  88 W14       29.90S
SHELDON *      PTSUNNY   55  48  76 W12         N/A
SIOUX CITY     SUNNY     60  50  69 W13       29.91F
SPENCER        PTSUNNY   57  49  74 NW9       29.89F
STORM LAKE *   SUNNY     57  48  72 W15       29.90F
$$

IAZ055>058-069>071-079>083-090>094-221500-
   SOUTHWEST IOWA

CITY           SKY/WX    TMP DP  RH WIND       PRES   REMARKS
ATLANTIC *     MOSUNNY   61  50  67 SW14      29.94F
AUDUBON *      SUNNY     59  52  77 SW12G18   29.93F
CLARINDA *     CLOUDY    55  52  88 S7        30.01F
COUNCIL BLFS * MOSUNNY   61  52  72 W9        29.96R
CRESTON *      PTSUNNY   59  50  72 SW15      29.99S
HARLAN  *      MOSUNNY   59  50  72 W15       29.97S
LAMONI         CLOUDY    57  49  74 S9        29.99F
RED OAK *      CLOUDY    61  54  77 SW12      29.97S
SHENANDOAH *   CLOUDY    59  54  82 SW9       29.99F
$$

IAZ047>049-059>061-072>074-084-221500-
   CENTRAL IOWA

CITY           SKY/WX    TMP DP  RH WIND       PRES   REMARKS
AMES           MOSUNNY   59  50  72 SW9       29.92F
ANKENY *       MOSUNNY   61  46  59 SW13G24   29.94F
BOONE *        MOSUNNY   59  48  67 SW16      29.91S
DES MOINES     PTSUNNY   62  46  55 SW18      29.93F
GRINNELL*      CLOUDY    56  47  71 S13       29.97F
MARSHALLTOWN   PTSUNNY   54  47  77 S10       29.93F
NEWTON *       PTSUNNY   57  46  67 S12G18    29.94F
PELLA *        PTSUNNY   59  46  62 S10G16    29.98F
PERRY *        PTSUNNY   59  51  76 SW14      29.92S
$$

IAZ004>006-015-016-023>025-035-036-221500-
   NORTH CENTRAL IOWA

CITY           SKY/WX    TMP DP  RH WIND       PRES   REMARKS
ALGONA *       CLOUDY    55  50  82 S9        29.88F
CLARION *      CLOUDY    54  52  94 S12       29.90F
ESTHERVILLE    CLOUDY    54  49  83 NW10      29.88S
FORT DODGE *   SUNNY     57  48  72 SW10G17   29.91F
MASON CITY     PTSUNNY   51  47  86 CALM      29.91F
FOREST CITY *    N/A     55  46  71 CALM      29.89F
WEBSTER CITY * SUNNY     55  48  76 S5        29.89F
IOWA FALLS *   CLOUDY    54  49  82 NW6       29.94S
$$

IAZ007>011-017>019-026>030-037>042-050>054-066-221500-
   NORTHEAST IOWA

CITY           SKY/WX    TMP DP  RH WIND       PRES   REMARKS
CEDAR RAPIDS   CLOUDY    53  47  79 SW13      29.97F
CHARLES CITY * CLOUDY    46  46 100 S9        29.93F
CLINTON *      CLOUDY    59  49  69 SW15      30.01F
DECORAH *      CLOUDY    48  45  87 VRB3G14   29.92S
DUBUQUE        CLOUDY    50  45  83 SW12      29.98R
MONTICELLO *   CLOUDY    54  46  76 SW9       29.99R
OELWEIN *      LGT RAIN  48  46  93 SW6G16    29.97S
WATERLOO       CLOUDY    52  47  83 SW6       29.95S
$$

IAZ064-065-067-068-078-221500-
   EAST CENTRAL IOWA

CITY           SKY/WX    TMP DP  RH WIND       PRES   REMARKS
DAVENPORT      PTSUNNY   59  46  62 SW21      30.01F
IOWA CITY      CLOUDY    57  46  66 SW10      30.00F
MT. PLEASANT * SUNNY     60  49  65 SW15      30.02F
MUSCATINE *    CLOUDY    63  48  59 SW13G21   30.01F
QUAD CITIES    MOSUNNY   61  47  59 SW14G21   30.00F
$$

IAZ062-063-075>077-085>089-095>099-221500-
   SOUTHEAST IOWA

CITY           SKY/WX    TMP DP  RH WIND       PRES   REMARKS
BURLINGTON     SUNNY     61  50  67 SW14      30.03F
FAIRFIELD *    MOSUNNY   63  46  55 SW20G25   29.99F
FORT MADISON * SUNNY     61  52  72 S14G21    30.04F
KEOKUK *       SUNNY     61  50  67 SW13G20   30.04F
OSKALOOSA *      N/A     60  48  63 SW16      29.99F
CENTERVILLE *    N/A     63  48  59 S16G22    30.02F
OTTUMWA        PTSUNNY   61  46  57 SW14G23   29.99F
WASHINGTON *   PTSUNNY   61  48  63 SW17      30.00F
$$

ABBREVIATIONS USED IN REMARKS
   TC - TEMPERATURES IN CELSIUS
  WCI - WIND CHILL INDEX
   HX - HEAT INDEX
  VSB - VISIBILITY
$$





USA.gov is the U.S. government's official web portal to all federal, state and local government web resources and services.